[[{"header":{"parameterUnit":"m.s-1","parameterCategory":1,"la1":30.2991,"la2":30.254,"lo1":-89.0895,"lo2":-89.0444,"dx":0.0017,"dy":0.0017,"nx":28,"ny":28,"refTime":"2022-11-05T15:00:00:Z","depth":0,"parameterNumber":2,"parameterNumberName":"U-component_of_WINDS"},"data":[0,0,0,0,0,0,0,0,0,0,0,0,0,0,0,0,0,0,0,0,0,0,0,0,0,0,0,0,0,0,0,0,0,0,0,0,0,0,0,0,0,0,0,0,0,0,0,0,0,0,0,0,0,0,0,0,0,0,-0.652,-0.652,0,-0.6531,-0.6531,-0.6531,-0.6506,-0.6505,-0.6504,-0.6503,-0.6515,-0.6516,-0.6517,0,0,0,0,0,0,0,0,0,0,0,0,0,-0.6476,-0.6477,-0.652,-0.652,-0.652,-0.6531,-0.6531,-0.6532,-0.6506,-0.6505,-0.6504,-0.6503,-0.6515,-0.6516,-0.6518,0,0,0,0,0,0,0,0,0,0,0,0,0,-0.6492,-0.6478,-0.652,-0.6509,-0.6508,-0.6531,-0.6531,-0.6532,-0.6506,-0.6505,-0.6504,-0.6502,-0.6515,-0.6516,-0.6518,-0.6553,0,0,-0.6523,-0.6524,0,0,0,0,0,0,0,0,-0.6491,-0.6494,-0.651,-0.6509,-0.6509,-0.6516,-0.652,-0.6539,-0.6506,-0.6507,-0.6503,-0.6502,-0.6517,-0.6518,-0.6523,-0.6553,-0.6554,-0.6523,-0.6524,-0.6525,-0.6525,0,0,0,0,0,0,0,-0.649,-0.6493,-0.6524,-0.651,-0.6509,-0.6503,-0.6504,-0.6524,-0.6518,-0.6507,-0.6505,-0.6506,-0.6516,-0.6521,-0.6523,-0.6554,-0.6523,-0.6524,-0.6525,-0.6526,-0.6614,-0.6616,0,0,0,0,0,0,-0.6491,-0.6493,-0.6524,-0.6525,-0.6497,-0.6505,-0.6506,-0.6515,-0.6518,-0.6517,-0.6507,-0.6505,-0.6519,-0.6521,-0.6523,-0.6565,-0.6525,-0.6526,-0.6527,-0.6613,-0.6615,-0.6616,0,0,0,0,0,0,-0.649,-0.6494,-0.6524,-0.6508,-0.6511,-0.6507,-0.6517,-0.6516,-0.6521,-0.6519,-0.6518,-0.6514,-0.6518,-0.6521,-0.6546,-0.6565,-0.6527,-0.6528,-0.6611,-0.6614,-0.6615,-0.6649,0,0,0,0,0,0,-0.6489,-0.6494,-0.6507,-0.6509,-0.6512,-0.6546,-0.6518,-0.6517,-0.6524,-0.6521,-0.6525,-0.6524,-0.6517,-0.6543,-0.6547,-0.6567,-0.653,-0.661,-0.6612,-0.6615,-0.6646,-0.6652,-0.6657,0,0,0,0,0,-0.6487,-0.6516,-0.6508,-0.6511,-0.6529,-0.6547,-0.6549,-0.6541,-0.6525,-0.6539,-0.6537,-0.6524,-0.6562,-0.6546,-0.655,-0.6571,-0.6608,-0.6612,-0.6615,-0.6644,-0.6651,-0.6657,0,0,0,0,0,0,-0.6516,-0.6516,-0.6507,-0.6537,-0.6542,-0.6543,-0.6559,-0.6548,-0.6558,-0.6555,-0.6545,-0.6546,-0.6573,-0.6574,-0.6556,-0.6605,-0.6583,-0.6587,-0.6603,-0.661,-0.6615,-0.6615,-0.6531,0,0,0,0,0,-0.6526,-0.6541,-0.6539,-0.6566,-0.6569,-0.6564,-0.6571,-0.6564,-0.657,-0.6572,-0.6572,-0.6578,-0.6592,-0.6601,-0.6613,-0.6646,-0.6647,-0.6662,-0.6667,-0.6671,-0.6675,-0.6694,-0.6701,-0.6626,-0.6626,-0.6626,0,0,-0.6547,-0.6548,-0.6558,-0.6572,-0.6575,-0.6591,-0.6566,-0.6584,-0.6595,-0.6575,-0.6598,-0.6599,-0.6605,-0.6634,-0.6647,-0.6636,-0.6696,-0.6675,-0.6679,-0.668,-0.6698,-0.6705,-0.6711,-0.6628,-0.6628,-0.6628,0,0,-0.6593,-0.6595,-0.6618,-0.6621,-0.6627,-0.6623,-0.6629,-0.6631,-0.663,-0.6654,-0.6639,-0.6653,-0.6676,-0.6681,-0.6686,-0.6734,-0.6722,-0.6738,-0.6766,-0.6784,-0.679,-0.6795,-0.6813,-0.682,-0.6742,-0.6742,-0.6742,0,-0.6618,-0.6641,-0.6631,-0.665,-0.6656,-0.6638,-0.6661,-0.6665,-0.6675,-0.668,-0.6667,-0.6696,-0.6698,-0.6729,-0.6741,-0.6745,-0.6752,-0.6738,-0.679,-0.6795,-0.68,-0.6817,-0.6824,-0.6744,-0.6744,-0.6743,-0.6743,0,-0.6672,-0.6688,-0.6706,-0.6715,-0.6724,-0.6745,-0.6738,-0.6748,-0.674,-0.6738,-0.6762,-0.6764,-0.6777,-0.6783,-0.6776,-0.6813,-0.6806,-0.6792,-0.677,-0.6809,-0.6825,-0.6831,-0.6747,-0.6746,-0.6745,-0.6745,0,0,-0.6737,-0.6741,-0.6747,-0.6752,-0.6756,-0.6769,-0.6789,-0.6801,-0.681,-0.6817,-0.6834,-0.6854,-0.6841,-0.6847,-0.684,-0.6856,-0.6894,-0.684,-0.684,-0.6851,-0.6937,-0.6948,-0.6956,-0.6886,-0.6887,-0.6888,-0.6937,0,-0.6784,-0.6818,-0.681,-0.6844,-0.686,-0.6842,-0.686,-0.6865,-0.6863,-0.6876,-0.6874,-0.6888,-0.6869,-0.6873,-0.6888,-0.6887,-0.6912,-0.6883,-0.6903,-0.6904,-0.6903,-0.6964,-0.6976,-0.7022,-0.6943,-0.6944,-0.6944,0,-0.6842,-0.6852,-0.6888,-0.689,-0.6896,-0.6912,-0.6923,-0.6935,-0.6941,-0.6938,-0.6945,-0.6935,-0.6955,-0.6932,-0.696,-0.6941,-0.6948,-0.6949,-0.695,-0.6953,-0.6927,-0.697,-0.7036,-0.7044,-0.6954,-0.6953,-0.6952,0,-0.6888,-0.6909,-0.6934,-0.6938,-0.6941,-0.6953,-0.6955,-0.6959,-0.6967,-0.6976,-0.6981,-0.6993,-0.6999,-0.7008,-0.7002,-0.6985,-0.7031,-0.7007,-0.7031,-0.7031,-0.7042,-0.7042,-0.7112,-0.7045,-0.7045,-0.7045,-0.7045,0,-0.6941,-0.6964,-0.6954,-0.697,-0.6995,-0.6985,-0.701,-0.701,-0.7014,-0.7029,-0.7014,-0.7029,-0.7018,-0.7032,-0.7027,-0.7052,-0.7054,-0.7054,-0.7052,-0.7056,-0.7056,-0.7061,-0.7059,-0.7047,-0.7046,-0.7046,-0.7045,0,-0.6997,-0.6991,-0.7017,-0.7018,-0.7018,-0.7037,-0.7038,-0.7053,-0.7049,-0.7069,-0.7073,-0.7068,-0.7084,-0.7077,-0.7094,-0.709,-0.7122,-0.7116,-0.7121,-0.712,-0.7144,-0.7142,-0.7221,-0.7231,-0.7156,-0.7157,-0.7158,0,-0.7032,-0.705,-0.7052,-0.7061,-0.7064,-0.7079,-0.7087,-0.7077,-0.7086,-0.7094,-0.7107,-0.7121,-0.7133,-0.7158,-0.7156,-0.7169,-0.7164,-0.719,-0.7166,-0.7169,-0.7166,-0.7165,-0.7167,-0.7196,-0.7197,-0.7198,-0.7198,0,-0.7095,-0.7092,-0.7104,-0.7115,-0.7125,-0.7134,-0.7141,-0.7149,-0.714,-0.7151,-0.7166,-0.7175,-0.7192,-0.7206,-0.7217,-0.7219,-0.7208,-0.7206,-0.7212,-0.7217,-0.7219,-0.7219,-0.7136,-0.7204,-0.7204,-0.7203,-0.7203,-0.7203,-0.7143,-0.7158,-0.7162,-0.7176,-0.718,-0.7188,-0.7201,-0.72,-0.7213,-0.7226,-0.7219,-0.7237,-0.7242,-0.7256,-0.726,-0.7274,-0.7264,-0.7273,-0.7275,-0.7278,-0.7282,-0.7216,-0.7276,-0.7276,-0.7276,-0.7276,-0.7276,0,-0.7206,-0.7208,-0.7221,-0.7232,-0.7243,-0.723,-0.7237,-0.7248,-0.7264,-0.727,-0.7281,-0.7299,-0.7313,-0.7312,-0.7325,-0.7337,-0.7332,-0.7341,-0.7341,-0.7342,-0.729,-0.7284,-0.7345,-0.7345,-0.7345,-0.7345,-0.7345,-0.7345,-0.7241,-0.7266,-0.7262,-0.7289,-0.7291,-0.7309,-0.7314,-0.7321,-0.7325,-0.7347,-0.7358,-0.7357,-0.736,-0.7374,-0.7386,-0.7386,-0.7392,-0.7403,-0.74,-0.7352,-0.7345,-0.7339,-0.7333,-0.7404,-0.7404,-0.7451,-0.7452,-0.7452]},{"header":{"parameterUnit":"m.s-1","parameterCategory":1,"la1":30.2991,"la2":30.254,"lo1":-89.0895,"lo2":-89.0444,"dx":0.0017,"dy":0.0017,"nx":28,"ny":28,"refTime":"2022-11-05T15:00:00:Z","depth":0,"parameterNumber":3,"parameterNumberName":"V-component_of_WINDS"},"data":[0,0,0,0,0,0,0,0,0,0,0,0,0,0,0,0,0,0,0,0,0,0,0,0,0,0,0,0,0,0,0,0,0,0,0,0,0,0,0,0,0,0,0,0,0,0,0,0,0,0,0,0,0,0,0,0,0,0,-1.3186,-1.3186,0,-1.3234,-1.3234,-1.3235,-1.3243,-1.3243,-1.3243,-1.3242,-1.3289,-1.3291,-1.3292,0,0,0,0,0,0,0,0,0,0,0,0,0,-1.31,-1.3101,-1.3186,-1.3186,-1.3187,-1.3234,-1.3234,-1.3235,-1.3244,-1.3243,-1.3243,-1.3242,-1.3288,-1.329,-1.3292,0,0,0,0,0,0,0,0,0,0,0,0,0,-1.3141,-1.3102,-1.3186,-1.3197,-1.3198,-1.3233,-1.3234,-1.3235,-1.3244,-1.3243,-1.3243,-1.3242,-1.3288,-1.329,-1.3293,-1.3319,0,0,-1.33,-1.3301,0,0,0,0,0,0,0,0,-1.3139,-1.3144,-1.3195,-1.3196,-1.3198,-1.3232,-1.3221,-1.3263,-1.3244,-1.3226,-1.3242,-1.3242,-1.327,-1.3274,-1.3284,-1.3321,-1.3323,-1.33,-1.3302,-1.3303,-1.3303,0,0,0,0,0,0,0,-1.3136,-1.3142,-1.3205,-1.3195,-1.3197,-1.3199,-1.3204,-1.3229,-1.3251,-1.3228,-1.3229,-1.3234,-1.3271,-1.3282,-1.3285,-1.3324,-1.33,-1.3302,-1.3304,-1.3305,-1.3384,-1.3385,0,0,0,0,0,0,-1.3131,-1.314,-1.3203,-1.3206,-1.3166,-1.3201,-1.3207,-1.3222,-1.3251,-1.3255,-1.3235,-1.3235,-1.3278,-1.3283,-1.3287,-1.332,-1.3303,-1.3305,-1.3306,-1.3384,-1.3385,-1.3385,0,0,0,0,0,0,-1.313,-1.3137,-1.3201,-1.3173,-1.3182,-1.3203,-1.322,-1.3223,-1.3234,-1.3256,-1.326,-1.3242,-1.3278,-1.3284,-1.3311,-1.3322,-1.3306,-1.3308,-1.3383,-1.3384,-1.3385,-1.3386,0,0,0,0,0,0,-1.3127,-1.3136,-1.3147,-1.3173,-1.3183,-1.3225,-1.322,-1.3224,-1.3238,-1.3238,-1.3264,-1.3267,-1.3278,-1.3307,-1.3313,-1.3325,-1.331,-1.3382,-1.3383,-1.3385,-1.3385,-1.3387,-1.3388,0,0,0,0,0,-1.3124,-1.3145,-1.3147,-1.3155,-1.3197,-1.3226,-1.3231,-1.3243,-1.3239,-1.325,-1.3264,-1.3267,-1.332,-1.331,-1.3317,-1.3329,-1.3381,-1.3383,-1.3385,-1.3384,-1.3386,-1.3388,0,0,0,0,0,0,-1.3118,-1.3148,-1.3152,-1.3182,-1.3201,-1.3227,-1.3241,-1.3245,-1.3266,-1.3265,-1.3279,-1.3284,-1.3311,-1.3323,-1.3312,-1.3356,-1.335,-1.3353,-1.3347,-1.335,-1.3351,-1.3348,-1.3312,0,0,0,0,0,-1.312,-1.3142,-1.3167,-1.3191,-1.32,-1.3219,-1.3232,-1.324,-1.326,-1.3268,-1.3284,-1.3303,-1.3324,-1.3338,-1.3358,-1.3387,-1.3392,-1.3398,-1.34,-1.3401,-1.3404,-1.342,-1.3423,-1.339,-1.339,-1.339,0,0,-1.3125,-1.3144,-1.3157,-1.319,-1.3206,-1.3227,-1.3226,-1.3248,-1.3264,-1.3271,-1.3298,-1.3311,-1.3333,-1.3361,-1.3374,-1.3372,-1.3414,-1.3403,-1.3404,-1.3406,-1.3421,-1.3425,-1.3427,-1.3391,-1.3391,-1.3391,0,0,-1.3144,-1.3161,-1.3183,-1.3199,-1.3224,-1.3236,-1.3241,-1.3267,-1.3276,-1.3303,-1.3309,-1.3328,-1.3364,-1.3379,-1.3392,-1.3418,-1.3421,-1.3424,-1.3432,-1.3448,-1.345,-1.3453,-1.3462,-1.3465,-1.3426,-1.3426,-1.3426,0,-1.3147,-1.318,-1.3194,-1.3216,-1.3231,-1.3239,-1.3261,-1.3276,-1.3306,-1.3315,-1.3312,-1.3358,-1.3373,-1.3405,-1.3411,-1.3421,-1.3427,-1.3421,-1.3449,-1.3452,-1.3454,-1.3463,-1.3466,-1.3426,-1.3426,-1.3426,-1.3426,0,-1.3182,-1.3204,-1.3219,-1.3249,-1.3265,-1.3287,-1.3303,-1.3318,-1.3325,-1.3337,-1.3365,-1.3384,-1.3408,-1.3416,-1.3423,-1.3449,-1.3447,-1.3446,-1.3441,-1.3457,-1.3466,-1.3469,-1.3427,-1.3427,-1.3426,-1.3426,0,0,-1.3198,-1.3236,-1.3241,-1.3254,-1.3282,-1.33,-1.3322,-1.3347,-1.3359,-1.3379,-1.3398,-1.3428,-1.3428,-1.3442,-1.3451,-1.3464,-1.3484,-1.3462,-1.3463,-1.3465,-1.3514,-1.3514,-1.3518,-1.3486,-1.3487,-1.3487,-1.3512,0,-1.3221,-1.3262,-1.3275,-1.3309,-1.3331,-1.3339,-1.3359,-1.3377,-1.339,-1.3409,-1.3422,-1.3443,-1.3441,-1.345,-1.3464,-1.3478,-1.3493,-1.3477,-1.3503,-1.3504,-1.3497,-1.3522,-1.3523,-1.3545,-1.3515,-1.3516,-1.3516,0,-1.3253,-1.3275,-1.3311,-1.3337,-1.3346,-1.3363,-1.3387,-1.3406,-1.3427,-1.3435,-1.3451,-1.3459,-1.3482,-1.3475,-1.3507,-1.3495,-1.3507,-1.3515,-1.3516,-1.3519,-1.3511,-1.3526,-1.3553,-1.3556,-1.3522,-1.3521,-1.3521,0,-1.3261,-1.3299,-1.3326,-1.3338,-1.3368,-1.338,-1.3393,-1.3414,-1.3428,-1.3449,-1.3458,-1.3481,-1.3494,-1.3511,-1.3524,-1.3518,-1.3555,-1.3549,-1.3562,-1.3561,-1.3569,-1.3568,-1.3598,-1.3576,-1.3576,-1.3576,-1.3576,0,-1.3285,-1.3307,-1.333,-1.3347,-1.3372,-1.3386,-1.341,-1.3424,-1.3442,-1.3461,-1.347,-1.3487,-1.3503,-1.3523,-1.3533,-1.3558,-1.3563,-1.357,-1.3572,-1.3569,-1.3568,-1.3577,-1.3575,-1.3577,-1.3577,-1.3577,-1.3577,0,-1.3298,-1.3315,-1.3345,-1.3372,-1.3379,-1.3396,-1.3419,-1.3435,-1.3447,-1.3471,-1.3477,-1.3497,-1.352,-1.3535,-1.3564,-1.3571,-1.3599,-1.3601,-1.3592,-1.3593,-1.3605,-1.3603,-1.3641,-1.3647,-1.3621,-1.3621,-1.3622,0,-1.3312,-1.333,-1.3359,-1.3372,-1.3386,-1.3408,-1.3422,-1.3438,-1.3453,-1.3479,-1.3491,-1.3515,-1.3535,-1.3572,-1.3589,-1.3611,-1.3613,-1.3625,-1.3617,-1.3613,-1.3614,-1.3612,-1.3614,-1.3626,-1.3627,-1.3627,-1.3627,0,-1.3336,-1.3343,-1.3365,-1.339,-1.3407,-1.3427,-1.3447,-1.3457,-1.3476,-1.3492,-1.3517,-1.3532,-1.3563,-1.3586,-1.361,-1.3623,-1.3628,-1.3629,-1.3634,-1.363,-1.3625,-1.3628,-1.3595,-1.3628,-1.3628,-1.3628,-1.3628,-1.3628,-1.335,-1.3366,-1.3389,-1.3412,-1.3429,-1.3448,-1.3464,-1.3479,-1.35,-1.3527,-1.3534,-1.356,-1.3581,-1.3614,-1.3627,-1.3647,-1.3645,-1.3651,-1.3653,-1.3654,-1.3654,-1.3622,-1.3651,-1.3651,-1.3651,-1.3651,-1.3651,0,-1.3373,-1.3389,-1.3411,-1.3439,-1.3457,-1.3461,-1.3484,-1.3499,-1.3521,-1.3541,-1.3561,-1.3589,-1.3612,-1.363,-1.3654,-1.3666,-1.3669,-1.3672,-1.3671,-1.3674,-1.3654,-1.3648,-1.3669,-1.3669,-1.3669,-1.3669,-1.3669,-1.3669,-1.3388,-1.3415,-1.3425,-1.3461,-1.3476,-1.3502,-1.3514,-1.3531,-1.3547,-1.3578,-1.3597,-1.361,-1.3629,-1.3654,-1.3675,-1.368,-1.3688,-1.3691,-1.3696,-1.3677,-1.3675,-1.3673,-1.3668,-1.3693,-1.3693,-1.3714,-1.3714,-1.3715]}]]